ARIANE 2 DEB, 27033

Orbit data source: Space-Track

ARIANE 2 DEB, 27033 is space debris in HEO originally from a launch on Fri, 27 Jan 1989 UTC launched from the French Guiana (FRGUI). Debris objects in space refer to the collection of defunct objects orbiting the Earth. Examples of debris include non-operational satellites, rocket bodies, and fragments generated from explosions, collisions, or faulty payload assembly.

Loading next visibility...
Identifier
27033, 1989-006N
Orbit
HEO
Country
Flag of FRFR
Related business
Manufacturer
EADS/LV
Mission
Spacecraft
Bus & Motor
Unknown
Mass
Unknown
Launch date (UTC)
1989-01-27 (37 years ago)
Launch vehicle
Unknown
Launch site
French Guiana (FRGUI)
Object type
Payload
Rocket body
Debris
Shape & HBR
Unknown shape, 0.6 m
Radar Cross Section
Medium (>0.1 m² and <1 m²)

Expand to show TLE details & history
Last TLE update: 16 hours ago

TLE from 16 hours ago
0 ARIANE 2 DEB
1 27033U 89006N   25286.77259943  .00000158  00000-0  11410-2 0  9990
2 27033   8.1888 110.2052 7112627   6.3830 188.5168  2.34706121204220
Epoch: 2025-10-13T18:32Z
TLE epoch observation values (Epoch: 2025-10-13T18:32:32.590Z)
Latitude
-1.19483°
Longitude
-2.13225°
Altitude
34,464.579 km
Speed
1.689 km/s
True Right ascension
19h 54m 17s
True Declination
-1° 11' 37"
Sunlit
Object was in daylight at epoch
Visualization orbit readout
Latitude
Unknown
Longitude
Unknown
Altitude
Unknown
Speed
Unknown
Apparent Right ascension
Unknown
Apparent Declination
Unknown
Sunlit
N/A
Visualization observer readout
Local Sidereal Time
04:40:17
Azimuth
Unknown
Elevation
Unknown
Doppler factor
Unknown
Orbital elements
Apogee altitude
34,560.105 km
Perigee altitude
529.276 km
Semi-major axis
23,922.827 km
Eccentricity
0.71126
Inclination
8.1888°
RAAN
110.2052°
Arg. of periapsis
6.383°
True anomaly
182.04648°
Mean anomaly
188.5168°
Eccentric anomaly
184.97951°
Mean motion
0.58658 °/min
Orbital period
613.73 mins
BSTAR
0.001141
Loading maneuver chart data...
Computing Atmospheric mass density...
Loading historical data...
Loading historical data...
Loading historical data...
Loading historical data...
Loading historical data...
Loading historical data...
Loading historical data...

Documentation

Showing up to 5 results
|